EW9322 Weather Reports


time (UTC)temp
F
wind
direction
speed
knots
gust
knots
rain 1hr
in
rain 24hr
in
rain mn
in
humidity
%
barometer
mb
20260510130822 61 46 1.7 4.3 0.00 0.00 0.00 78 1020.1
20260510125819 62 11 1.7 3.5 0.00 0.00 0.00 78 1020.0
20260510125319 62 339 1.7 3.5 0.00 0.00 0.00 78 1019.8
20260510124823 62 35 1.7 4.3 0.00 0.00 0.00 78 1019.6
20260510124819 62 9 1.7 4.3 0.00 0.00 0.00 78 1019.7
20260510123818 62 46 0.9 3.5 0.00 0.00 0.00 79 1019.3
20260510123317 62 32 0.9 4.3 0.00 0.00 0.00 79 1019.2
20260510122817 62 18 1.7 4.3 0.00 0.00 0.00 80 1019.1
20260510122316 61 37 1.7 3.5 0.00 0.00 0.00 80 1018.8
20260510121816 61 63 2.6 4.3 0.00 0.00 0.00 80 1018.7
20260510121321 61 69 1.7 6.1 0.00 0.00 0.00 81 1018.4
20260510121317 61 43 2.6 6.1 0.00 0.00 0.00 80 1018.4
20260510120315 61 61 1.7 5.2 0.00 0.00 0.00 80 1018.4
20260510115815 62 19 0.9 4.3 0.00 0.00 0.00 81 1018.2
20260510115315 61 65 1.7 4.3 0.00 0.00 0.00 81 1018.2
20260510114816 61 30 1.7 5.2 0.00 0.00 0.00 81 1018.0
20260510114316 61 53 1.7 7.0 0.00 0.00 0.00 81 1017.9
20260510113818 61 40 1.7 3.5 0.00 0.00 0.00 80 1017.9
20260510113814 61 77 1.7 7.0 0.00 0.00 0.00 80 1017.8
20260510112818 62 82 1.7 7.0 0.00 0.00 0.00 79 1017.8
20260510112814 61 55 1.7 7.0 0.00 0.00 0.00 80 1017.7
20260510111813 61 50 0.9 3.5 0.00 0.00 0.00 80 1017.7
20260510111313 61 52 0.9 2.6 0.00 0.00 0.00 79 1017.5
20260510110813 61 12 0.9 3.5 0.00 0.00 0.00 79 1017.3
20260510110312 61 5 0.9 3.5 0.00 0.00 0.00 79 1017.4
20260510105812 61 38 0.9 3.5 0.00 0.00 0.00 79 1017.3
20260510105313 61 5 0.9 2.6 0.00 0.00 0.00 78 1017.2
20260510105308 61 32 0.9 2.6 0.00 0.00 0.00 78 1017.3
20260510104308 61 5 0.9 2.6 0.00 0.00 0.00 78 1017.4
20260510103808 61 52 0.9 2.6 0.00 0.00 0.00 77 1017.2
20260510103308 61 67 0.9 2.6 0.00 0.00 0.00 77 1016.8
20260510102808 62 90 0.9 2.6 0.00 0.00 0.00 76 1016.8
20260510102306 62 25 0.9 2.6 0.00 0.00 0.00 76 1016.9
20260510101804 62 26 0.9 3.5 0.00 0.00 0.00 76 1017.0
20260510101304 62 28 0.9 3.5 0.00 0.00 0.00 75 1016.8
20260510100803 62 49 0.9 2.6 0.00 0.00 0.00 75 1016.6
20260510100304 62 349 0.9 2.6 0.00 0.00 0.00 75 1016.4
20260510095803 62 18 0.9 1.7 0.00 0.00 0.00 75 1016.2
20260510095305 62 67 0.9 2.6 0.00 0.00 0.00 75 1016.0
20260510094805 63 37 0.9 3.5 0.00 0.00 0.00 75 1016.0
20260510094304 63 47 0.9 3.5 0.00 0.00 0.00 75 1015.8
20260510093804 63 55 0.0 1.7 0.00 0.00 0.00 75 1015.5
20260510093312 64 40 0.0 1.7 0.00 0.00 0.00 74 1015.2
20260510093304 63 27 0.0 1.7 0.00 0.00 0.00 75 1015.4
20260510092804 64 344 0.0 2.6 0.00 0.00 0.00 75 1015.2
20260510092307 64 342 0.0 2.6 0.00 0.00 0.00 75 1015.3
20260510091308 64 76 0.9 1.7 0.00 0.00 0.00 74 1015.1
20260510091304 64 76 0.9 1.7 0.00 0.00 0.00 74 1015.1
20260510090304 65 76 0.0 1.7 0.00 0.00 0.00 74 1015.1
20260510085804 65 76 0.9 2.6 0.00 0.00 0.00 73 1014.9
20260510085306 65 76 0.9 2.6 0.00 0.00 0.00 73 1014.9
20260510084808 66 66 0.0 1.7 0.00 0.00 0.00 72 1014.9
20260510084803 65 76 0.0 2.6 0.00 0.00 0.00 72 1014.9
20260510083803 66 66 0.0 2.6 0.00 0.00 0.00 71 1014.9
20260510083304 66 66 0.9 2.6 0.00 0.00 0.00 71 1015.0
20260510082803 66 48 0.9 2.6 0.00 0.00 0.00 72 1015.1
20260510082306 67 20 0.9 2.6 0.00 0.00 0.00 71 1014.9
20260510081803 67 20 0.9 2.6 0.00 0.00 0.00 71 1015.1
20260510081304 67 65 0.9 2.6 0.00 0.00 0.00 70 1015.1
20260510080802 67 55 0.9 2.6 0.00 0.00 0.00 70 1015.2
20260510080259 67 63 1.7 5.2 0.00 0.00 0.00 70 1015.1
20260510075759 67 94 1.7 5.2 0.00 0.00 0.00 69 1015.2
20260510075300 68 68 1.7 4.3 0.00 0.00 0.00 68 1015.0
20260510074755 68 71 1.7 7.0 0.00 0.00 0.00 68 1014.9
20260510074255 68 66 1.7 7.0 0.00 0.00 0.00 67 1014.7
20260510073754 68 65 1.7 3.5 0.00 0.00 0.00 66 1014.7
20260510073252 69 72 0.9 3.5 0.00 0.00 0.00 65 1014.6
20260510072756 69 74 1.7 3.5 0.00 0.00 0.00 64 1014.6
20260510072752 69 42 0.9 2.6 0.00 0.00 0.00 64 1014.5
20260510071756 69 81 1.7 6.1 0.00 0.00 0.00 63 1014.3
20260510071751 69 74 1.7 6.1 0.00 0.00 0.00 64 1014.2
20260510070749 70 67 1.7 4.3 0.00 0.00 0.00 62 1014.4
20260510070249 70 53 1.7 4.3 0.00 0.00 0.00 60 1014.3
20260510065746 71 59 1.7 3.5 0.00 0.00 0.00 59 1014.3
20260510065245 71 63 1.7 3.5 0.00 0.00 0.00 58 1014.4
20260510064745 72 56 1.7 3.5 0.00 0.00 0.00 56 1014.4
20260510064247 73 47 1.7 3.5 0.00 0.00 0.00 51 1014.4
20260510064243 72 71 1.7 3.5 0.00 0.00 0.00 53 1014.4
20260510063856 75 61 1.7 4.3 0.00 0.00 0.00 38 1014.3
20260510063243 74 59 0.9 3.5 0.00 0.00 0.00 47 1014.4
20260510062743 74 42 0.9 4.3 0.00 0.00 0.00 40 1014.5
20260510061743 75 346 1.7 2.6 0.00 0.00 0.00 38 1014.2
20260510061242 76 54 0.9 3.5 0.00 0.00 0.00 29 1014.0
20260510060741 76 5 0.9 3.5 0.00 0.00 0.00 23 1014.0
20260510060245 76 355 0.9 2.6 0.00 0.00 0.00 22 1013.4
20260510060241 76 14 0.9 2.6 0.00 0.00 0.00 23 1013.8
20260510055737 76 34 0.0 1.7 0.00 0.00 0.00 23 1013.2
20260510054737 76 34 0.0 2.6 0.00 0.00 0.00 22 1013.2
20260510054237 76 34 0.0 2.6 0.00 0.00 0.00 22 1013.1
20260510053736 76 311 0.0 0.9 0.00 0.00 0.00 22 1013.0
20260510053237 77 311 0.0 1.7 0.00 0.00 0.00 22 1012.8
20260510052737 77 311 0.0 1.7 0.00 0.00 0.00 22 1012.8
20260510052237 77 311 0.0 0.9 0.00 0.00 0.00 22 1012.8
20260510051733 77 311 0.0 0.9 0.00 0.00 0.00 22 1013.0
20260510051232 77 311 0.0 0.9 0.00 0.00 0.00 22 1013.1
20260510050729 77 311 0.0 0.9 0.00 0.00 0.00 22 1013.1
20260510050229 78 311 0.0 0.9 0.00 0.00 0.00 22 1013.2
20260510045727 78 307 0.0 0.9 0.00 0.00 0.00 22 1013.3
20260510045231 79 307 0.0 0.9 0.00 0.00 0.00 21 1013.3
20260510045227 78 307 0.0 0.9 0.00 0.00 0.00 21 1013.3
20260510044225 79 307 0.0 1.7 0.00 0.00 0.00 21 1013.3
20260510043725 80 307 0.0 1.7 0.00 0.00 0.00 21 1013.2
20260510043224 80 329 0.9 1.7 0.00 0.00 0.00 20 1013.2
20260510042724 80 329 0.9 2.6 0.00 0.00 0.00 20 1013.2
20260510042223 80 336 0.0 2.6 0.00 0.00 0.00 19 1013.2
20260510041725 81 319 0.0 0.9 0.00 0.00 0.00 20 1013.1
20260510041224 81 319 0.0 1.7 0.00 0.00 0.00 19 1013.1
20260510040724 81 319 0.9 2.6 0.00 0.00 0.00 19 1013.2
20260510040225 82 319 1.7 6.1 0.00 0.00 0.00 19 1013.3
20260510035724 82 321 1.7 6.1 0.00 0.00 0.00 19 1013.2
20260510035220 81 322 1.7 3.5 0.00 0.00 0.00 19 1013.1
20260510034719 81 323 1.7 4.3 0.00 0.00 0.00 19 1013.0
20260510034225 78 311 0.9 3.5 0.00 0.00 0.00 21 1013.1
20260510034220 80 346 1.7 5.2 0.00 0.00 0.00 20 1012.8
20260510033717 79 328 1.7 5.2 0.00 0.00 0.00 21 1013.1
20260510032717 78 309 0.0 2.6 0.00 0.00 0.00 21 1013.0
20260510032329 78 333 0.0 0.0 0.00 0.00 0.00 19 1012.3
20260510032220 78 333 0.0 0.9 0.00 0.00 0.00 20 1012.3
20260510032215 78 333 0.0 0.9 0.00 0.00 0.00 21 1012.6
20260510031327 78 335 0.9 1.7 0.00 0.00 0.00 20 1012.2
20260510030717 78 333 0.0 2.6 0.00 0.00 0.00 19 1012.1
20260510030215 78 333 0.9 2.6 0.00 0.00 0.00 19 1012.1
20260510025214 78 325 0.0 1.7 0.00 0.00 0.00 20 1012.3
20260510024714 78 142 0.0 0.0 0.00 0.00 0.00 19 1011.9
20260510024214 78 142 0.0 0.0 0.00 0.00 0.00 19 1011.6
20260510023713 78 142 0.0 0.0 0.00 0.00 0.00 19 1011.5
20260510023213 79 142 0.0 0.0 0.00 0.00 0.00 18 1011.4
20260510022713 79 142 0.0 0.9 0.00 0.00 0.00 17 1011.2
20260510022213 79 142 0.0 1.7 0.00 0.00 0.00 17 1011.0
20260510021712 79 142 0.0 1.7 0.00 0.00 0.00 17 1011.0
20260510021213 80 142 0.0 0.9 0.00 0.00 0.00 18 1011.3
20260510020712 80 142 0.0 0.9 0.00 0.00 0.00 17 1011.0
20260510020211 80 142 0.0 0.9 0.00 0.00 0.00 16 1010.9
20260510015711 80 142 0.0 3.5 0.00 0.00 0.00 16 1010.9
20260510015211 81 142 0.0 3.5 0.00 0.00 0.00 16 1010.9
20260510014711 81 309 0.0 0.9 0.00 0.00 0.00 16 1010.8
20260510014211 81 309 0.0 0.0 0.00 0.00 0.00 17 1010.7
20260510013716 83 309 0.0 0.0 0.00 0.00 0.00 17 1010.6
20260510013712 82 309 0.0 0.0 0.00 0.00 0.00 17 1010.6
20260510012711 83 309 0.0 0.0 0.00 0.00 0.00 16 1010.6
20260510012211 84 309 0.0 0.0 0.00 0.00 0.00 15 1010.5
20260510011710 84 309 0.0 0.0 0.00 0.00 0.00 14 1010.4
20260510011208 85 309 0.0 0.0 0.00 0.00 0.00 14 1010.4
20260510010709 85 309 0.0 0.0 0.00 0.00 0.00 14 1010.3
20260510010209 86 309 0.0 0.0 0.00 0.00 0.00 14 1010.3
20260510005710 87 309 0.0 0.9 0.00 0.00 0.00 13 1010.3
20260510005209 87 309 0.0 0.9 0.00 0.00 0.00 13 1010.2
20260510004709 87 309 0.0 1.7 0.00 0.00 0.00 13 1010.2
20260510004210 88 309 0.9 2.6 0.00 0.00 0.00 12 1010.2
20260510003714 89 309 0.9 2.6 0.00 0.00 0.00 12 1010.2
20260510003709 88 309 0.9 2.6 0.00 0.00 0.00 12 1010.2
20260510002715 90 281 1.7 4.3 0.00 0.00 0.00 12 1010.2
20260510002708 89 309 0.9 3.5 0.00 0.00 0.00 12 1010.2
20260510002208 89 307 0.9 3.5 0.00 0.00 0.00 11 1010.2
20260510001707 89 310 1.7 4.3 0.00 0.00 0.00 11 1010.0
20260510001207 89 292 1.7 4.3 0.00 0.00 0.00 11 1010.2
20260510000207 90 297 1.7 3.5 0.00 0.00 0.00 11 1010.3
20260509235708 90 282 1.7 4.3 0.00 0.00 0.00 11 1010.2
20260509235212 91 326 1.7 3.5 0.00 0.00 0.00 11 1010.2
20260509235208 91 333 1.7 4.3 0.00 0.00 0.00 11 1010.2
20260509234819 91 32 1.7 3.5 0.00 0.00 0.00 10 1010.3
20260509233707 91 289 1.7 3.5 0.00 0.00 0.00 11 1010.3
20260509233205 91 259 1.7 4.3 0.00 0.00 0.00 11 1010.4
20260509232703 92 323 1.7 4.3 0.00 0.00 0.00 10 1010.4
20260509232203 92 336 0.9 3.5 0.00 0.00 0.00 10 1010.4
20260509231702 92 259 0.9 5.2 0.00 0.00 0.00 10 1010.4
20260509231200 91 234 1.7 6.1 0.00 0.00 0.00 10 1010.5
20260509230701 91 78 2.6 6.1 0.00 0.00 0.00 9 1010.5
20260509230200 91 297 3.5 7.8 0.00 0.00 0.00 9 1010.6
20260509225701 91 185 3.5 7.8 0.00 0.00 0.00 9 1010.5
20260509225202 91 287 2.6 7.0 0.00 0.00 0.00 10 1010.5
20260509224702 92 260 3.5 7.8 0.00 0.00 0.00 10 1010.6
20260509224201 91 326 3.5 7.8 0.00 0.00 0.00 10 1010.7
20260509223659 91 287 2.6 7.8 0.00 0.00 0.00 10 1010.9
20260509223200 92 300 2.6 7.0 0.00 0.00 0.00 10 1010.8
20260509222657 92 300 2.6 7.0 0.00 0.00 0.00 10 1010.9
20260509222157 92 279 2.6 5.2 0.00 0.00 0.00 11 1010.9
20260509221658 92 318 2.6 6.1 0.00 0.00 0.00 11 1010.8
20260509221156 92 271 2.6 6.1 0.00 0.00 0.00 10 1010.8
20260509220655 92 289 2.6 5.2 0.00 0.00 0.00 11 1011.2
20260509220153 92 336 2.6 8.7 0.00 0.00 0.00 11 1011.0
20260509215652 91 317 3.5 8.7 0.00 0.00 0.00 11 1011.3
20260509215152 91 234 3.5 7.8 0.00 0.00 0.00 10 1011.2
20260509214652 91 287 3.5 8.7 0.00 0.00 0.00 11 1011.3
20260509214153 91 278 3.5 8.7 0.00 0.00 0.00 11 1011.4
20260509213654 91 280 4.3 8.7 0.00 0.00 0.00 10 1011.5
20260509213157 92 275 3.5 8.7 0.00 0.00 0.00 9 1011.6
20260509213153 91 259 3.5 8.7 0.00 0.00 0.00 10 1011.5
20260509212153 92 333 3.5 8.7 0.00 0.00 0.00 10 1011.7
20260509211652 92 327 3.5 8.7 0.00 0.00 0.00 12 1011.6
20260509211154 91 98 3.5 8.7 0.00 0.00 0.00 10 1011.6
20260509210658 91 268 3.5 9.6 0.00 0.00 0.00 10 1011.9
20260509210653 91 315 4.3 9.6 0.00 0.00 0.00 9 1011.7
20260509205652 90 327 3.5 9.6 0.00 0.00 0.00 10 1011.9
20260509205150 90 288 3.5 9.6 0.00 0.00 0.00 11 1011.9
20260509204650 90 244 3.5 8.7 0.00 0.00 0.00 13 1011.9
20260509204152 91 287 3.5 10.4 0.00 0.00 0.00 12 1012.1
20260509204148 90 285 4.3 10.4 0.00 0.00 0.00 12 1012.1
20260509203154 91 280 3.5 13.0 0.00 0.00 0.00 12 1012.2
20260509203148 91 298 3.5 13.0 0.00 0.00 0.00 13 1012.1
20260509202149 91 21 3.5 7.0 0.00 0.00 0.00 12 1012.2
20260509201646 91 325 3.5 10.4 0.00 0.00 0.00 13 1012.2
20260509201146 91 252 3.5 10.4 0.00 0.00 0.00 12 1012.3
20260509200648 91 335 3.5 11.3 0.00 0.00 0.00 14 1012.3
20260509200146 90 287 4.3 11.3 0.00 0.00 0.00 11 1012.3
20260509195646 90 269 3.5 7.8 0.00 0.00 0.00 15 1012.3
20260509195147 90 300 3.5 7.8 0.00 0.00 0.00 15 1012.3
20260509194647 89 268 4.3 7.8 0.00 0.00 0.00 14 1012.3
20260509194147 90 247 4.3 9.6 0.00 0.00 0.00 15 1012.4
20260509193647 89 268 4.3 9.6 0.00 0.00 0.00 15 1012.4
20260509193151 89 271 2.6 9.6 0.00 0.00 0.00 16 1012.5
20260509193146 89 248 3.5 9.6 0.00 0.00 0.00 15 1012.4
20260509192800 89 288 1.7 6.1 0.00 0.00 0.00 17 1012.6
20260509191646 89 239 2.6 7.0 0.00 0.00 0.00 17 1012.6
20260509191147 88 229 3.5 9.6 0.00 0.00 0.00 17 1012.8
20260509190646 88 282 3.5 9.6 0.00 0.00 0.00 18 1012.8
20260509190149 87 263 3.5 7.8 0.00 0.00 0.00 18 1013.0
20260509190145 87 270 3.5 7.8 0.00 0.00 0.00 18 1013.1
20260509185144 87 227 4.3 8.7 0.00 0.00 0.00 19 1013.1
20260509184644 87 246 3.5 10.4 0.00 0.00 0.00 18 1013.2
20260509184144 87 270 3.5 10.4 0.00 0.00 0.00 18 1013.3
20260509183644 87 250 3.5 9.6 0.00 0.00 0.00 18 1013.4
20260509183145 87 248 3.5 9.6 0.00 0.00 0.00 19 1013.3
20260509182645 87 278 3.5 8.7 0.00 0.00 0.00 18 1013.5
20260509182143 87 298 2.6 7.8 0.00 0.00 0.00 19 1013.5
20260509181643 87 167 2.6 7.8 0.00 0.00 0.00 19 1013.6
20260509181140 87 277 1.7 5.2 0.00 0.00 0.00 19 1013.7
20260509180642 86 214 1.7 6.1 0.00 0.00 0.00 20 1014.0
20260509180139 86 330 2.6 6.1 0.00 0.00 0.00 21 1014.2
20260509175637 85 290 2.6 6.1 0.00 0.00 0.00 22 1014.3
20260509175137 85 142 2.6 7.8 0.00 0.00 0.00 22 1014.4
20260509174639 84 298 2.6 7.0 0.00 0.00 0.00 23 1014.6
20260509174635 85 289 2.6 7.8 0.00 0.00 0.00 23 1014.5
20260509173632 84 207 2.6 7.0 0.00 0.00 0.00 23 1014.6
20260509173137 83 279 1.7 7.8 0.00 0.00 0.00 26 1014.7
20260509173133 83 284 2.6 7.8 0.00 0.00 0.00 25 1014.7
20260509172133 83 199 2.6 7.0 0.00 0.00 0.00 27 1014.9
20260509171632 82 156 2.6 7.0 0.00 0.00 0.00 27 1015.0
20260509171131 82 179 1.7 3.5 0.00 0.00 0.00 28 1015.1
20260509170630 81 254 1.7 6.1 0.00 0.00 0.00 29 1015.1
20260509170128 82 292 2.6 7.0 0.00 0.00 0.00 29 1015.1
20260509165628 82 283 1.7 7.0 0.00 0.00 0.00 28 1015.3
20260509165128 81 262 1.7 4.3 0.00 0.00 0.00 29 1015.3
20260509164626 81 137 1.7 4.3 0.00 0.00 0.00 30 1015.3
20260509164128 80 256 1.7 4.3 0.00 0.00 0.00 31 1015.3
20260509163624 80 304 1.7 6.1 0.00 0.00 0.00 31 1015.3
20260509163125 79 209 1.7 6.1 0.00 0.00 0.00 33 1015.4
20260509162625 79 223 2.6 7.8 0.00 0.00 0.00 34 1015.5
20260509162123 78 180 2.6 7.8 0.00 0.00 0.00 34 1015.5
20260509161628 78 153 2.6 9.6 0.00 0.00 0.00 36 1015.6
20260509161622 78 224 2.6 8.7 0.00 0.00 0.00 35 1015.6
20260509160623 78 170 2.6 9.6 0.00 0.00 0.00 36 1015.6
20260509160121 77 194 2.6 11.3 0.00 0.00 0.00 37 1015.6
20260509155620 77 135 3.5 11.3 0.00 0.00 0.00 37 1015.6
20260509155120 77 243 3.5 9.6 0.00 0.00 0.00 36 1015.6
20260509154620 77 250 3.5 9.6 0.00 0.00 0.00 35 1015.6
20260509154122 76 194 3.5 9.6 0.00 0.00 0.00 36 1015.8
20260509153626 75 173 2.6 8.7 0.00 0.00 0.00 39 1015.9
20260509153622 76 182 3.5 8.7 0.00 0.00 0.00 38 1015.8
20260509152620 75 167 2.6 8.7 0.00 0.00 0.00 41 1015.9
20260509152120 74 200 3.5 11.3 0.00 0.00 0.00 42 1015.9
20260509151620 73 271 3.5 11.3 0.00 0.00 0.00 45 1016.0
20260509151121 73 264 2.6 10.4 0.00 0.00 0.00 47 1016.0
20260509150621 72 144 2.6 7.0 0.00 0.00 0.00 51 1015.9
20260509150122 71 143 2.6 8.7 0.00 0.00 0.00 53 1016.0
20260509145627 69 165 2.6 7.0 0.00 0.00 0.00 53 1016.3
20260509145620 70 205 2.6 8.7 0.00 0.00 0.00 54 1016.0
20260509145120 69 136 2.6 7.0 0.00 0.00 0.00 54 1016.2
20260509144121 68 188 1.7 6.1 0.00 0.00 0.00 53 1016.4
20260509143621 67 171 1.7 6.1 0.00 0.00 0.00 54 1016.3
20260509143121 67 211 1.7 4.3 0.00 0.00 0.00 55 1016.3
20260509142625 64 198 1.7 7.8 0.00 0.00 0.00 54 1016.4
20260509142621 65 173 1.7 7.8 0.00 0.00 0.00 55 1016.4
20260509141621 63 172 0.9 5.2 0.00 0.00 0.00 55 1016.5
20260509141121 63 175 0.9 5.2 0.00 0.00 0.00 54 1016.5
20260509140621 62 178 0.0 1.7 0.00 0.00 0.00 55 1016.6
20260509140121 60 186 0.0 0.9 0.00 0.00 0.00 55 1016.6
20260509135620 60 186 0.0 2.6 0.00 0.00 0.00 55 1016.6
20260509135118 59 186 0.0 2.6 0.00 0.00 0.00 55 1016.5
20260509134619 58 190 0.0 1.7 0.00 0.00 0.00 54 1016.5
20260509134118 58 190 0.0 1.7 0.00 0.00 0.00 54 1016.5
20260509133618 58 190 0.0 1.7 0.00 0.00 0.00 55 1016.5
20260509133118 57 190 0.0 1.7 0.00 0.00 0.00 55 1016.4
20260509132619 57 190 0.9 1.7 0.00 0.00 0.00 57 1016.4
20260509132118 56 190 0.9 1.7 0.00 0.00 0.00 58 1016.3
20260509131619 55 190 0.0 1.7 0.00 0.00 0.00 59 1016.4
20260509131119 54 190 0.0 1.7 0.00 0.00 0.00 61 1016.4